Location: Bonny Doon Airfield
(37.0704°N, 122.1252°W)
Time: 03:23:33
(UTC-07:00)

BREEZE M DEB (TANK) - Visible Passes

Search period start: 01 November 2014 00:00
Search period end: 10 November 2014 23:00
Orbit: 339 x 13817 km, 49.6° (Epoch: 31 October)

Date Brightness Start Highest point End Pass type
(mag) Time Alt. Az. Time Alt. Az. Time Alt. Az.
01 Nov 7.5 19:35:45 10° SSE 19:50:22 14° SE 19:55:43 13° ESE visible
02 Nov 8.0 00:14:11 10° WSW 00:14:43 11° WSW 00:14:43 11° WSW visible
02 Nov 5.6 03:59:52 13° ENE 03:59:52 13° ENE 04:00:35 10° ENE visible
02 Nov 7.0 20:29:18 10° SSW 20:49:41 33° S 20:49:41 33° S visible
03 Nov 3.5 05:53:33 12° WNW 05:56:19 55° SW 06:03:47 10° SE visible
03 Nov 7.6 18:05:28 10° SSE 18:15:53 12° SE 18:22:42 10° ESE visible
03 Nov 7.7 22:38:25 10° SW 22:43:37 18° SW 22:43:37 18° SW visible
04 Nov 6.9 19:53:41 10° SSW 20:18:33 34° SSE 20:18:33 34° SSE visible
05 Nov 2.9 05:21:56 30° WNW 05:23:20 73° SW 05:29:46 10° SE visible
05 Nov 7.3 22:02:19 10° SW 22:12:26 26° SW 22:12:26 26° SW visible
06 Nov 6.8 19:18:12 10° S 19:46:46 32° SE 19:47:19 32° SE visible
07 Nov 2.5 04:50:16 79° NNE 04:50:21 80° NE 04:55:45 10° SE visible
07 Nov 6.9 21:25:54 10° SW 21:41:10 35° SW 21:41:10 35° SW visible
08 Nov 6.8 18:42:57 10° S 19:12:34 29° SE 19:16:00 27° ESE visible
09 Nov 4.4 04:18:34 32° E 04:18:34 32° E 04:21:43 10° ESE visible
09 Nov 6.5 20:49:12 10° SW 21:09:47 44° SSW 21:09:47 44° SSW visible
10 Nov 6.8 18:08:05 10° S 18:38:10 26° SE 18:44:35 20° ESE visible
